GORIZONT 8 [-]

Last updated on Jan. 25, 2020, 4:43 a.m. UTC

1 14532U 83118A   20024.72248878 -.00000205  00000-0  00000+0 0  9997
2 14532  13.7459 333.5277 0025376 119.2247  69.9725  0.98271092 97580
UTC
Height (km)
Latitude
Longitude
Inclination
Orbital Period
UTC large
Height (km)
Speed (km/s)
/
Latitude / Longitude
Inclination (degrees)
Orbital Period (minutes)
Azimuth
Elevation
Range (km)
Doppler Factor
iOS Compass Heading
iOS Angle

Next 30 passes for location: Hong Kong

Rise time Rise Azimuth (degrees) Set time Set Azimuth (degrees) Duration Max altitude (degrees)

No matching passes for this satellites